When you browse on this site, cookies collect data to enhance your experience and personalize the content and advertising you see.
Visit our Privacy Policy to learn more. By continuing to use the site, you agree to this use of cookies and data.
  • In Portugal
  • List of Countries
  • For 7 days
  • Water Temperature
  • Satellite Maps
  • Weather Map
  • Weather Widgets
  • user-avatar
    Login

    Hourly Weather Barancevo

    Today, 16 January, Wednesday

    Time Temperature Precipitation Wind Pressure Humidity
    00:00 -8°C° 0 mm 2 mps 727 mmHg 93%
    01:00 -8°C° 0 mm 2 mps 727 mmHg 93%
    02:00 -7°C° 0 mm 2 mps 727 mmHg 94%
    03:00 -7°C° 0.1 mm 2 mps 728 mmHg 94%
    04:00 -7°C° 0.1 mm 2 mps 728 mmHg 94%
    05:00 -7°C° 0.1 mm 2 mps 728 mmHg 94%
    06:00 -7°C° 0.1 mm 2 mps 728 mmHg 94%
    07:00 -7°C° 0.1 mm 2 mps 729 mmHg 95%
    08:00 -7°C° 0 mm 2 mps 729 mmHg 95%
    09:00 -6°C° 0 mm 2 mps 729 mmHg 94%
    10:00 -7°C° 0 mm 3 mps 730 mmHg 92%
    11:00 -7°C° 0 mm 3 mps 731 mmHg 91%
    12:00 -7°C° 0 mm 3 mps 731 mmHg 90%
    13:00 -6°C° 0 mm 3 mps 731 mmHg 90%
    14:00 -6°C° 0 mm 3 mps 732 mmHg 89%
    15:00 -6°C° 0 mm 3 mps 732 mmHg 89%
    16:00 -7°C° 0 mm 3 mps 733 mmHg 89%
    17:00 -8°C° 0 mm 3 mps 733 mmHg 88%
    18:00 -9°C° 0 mm 3 mps 733 mmHg 90%
    19:00 -10°C° 0 mm 3 mps 734 mmHg 93%
    20:00 -10°C° 0 mm 2 mps 734 mmHg 95%
    21:00 -10°C° 0 mm 2 mps 734 mmHg 95%
    22:00 -10°C° 0 mm 2 mps 734 mmHg 96%
    23:00 -10°C° 0 mm 2 mps 734 mmHg 96%

    Tomorrow, 17 January, Thursday

    Time Temperature Precipitation Wind Pressure Humidity
    00:00 -10°C° 0 mm 3 mps 734 mmHg 94%
    01:00 -9°C° 0 mm 3 mps 733 mmHg 91%
    02:00 -9°C° 0 mm 4 mps 733 mmHg 88%
    03:00 -9°C° 0.2 mm 4 mps 732 mmHg 89%
    04:00 -8°C° 0.2 mm 5 mps 731 mmHg 89%
    05:00 -8°C° 0.2 mm 6 mps 730 mmHg 90%
    06:00 -6°C° 0.3 mm 6 mps 729 mmHg 89%
    07:00 -4°C° 0.3 mm 6 mps 729 mmHg 89%
    08:00 -2°C° 0.3 mm 6 mps 728 mmHg 88%
    09:00 -2°C° 0.3 mm 6 mps 727 mmHg 89%
    10:00 -2°C° 0.3 mm 6 mps 727 mmHg 90%
    11:00 -1°C° 0.3 mm 6 mps 727 mmHg 91%
    12:00 -1°C° 0.3 mm 6 mps 726 mmHg 91%
    13:00 -1°C° 0.3 mm 6 mps 726 mmHg 91%
    14:00 -1°C° 0.3 mm 6 mps 725 mmHg 90%
    15:00 -1°C° 0.4 mm 6 mps 725 mmHg 89%
    16:00 -2°C° 0.4 mm 6 mps 725 mmHg 88%
    17:00 -2°C° 0.4 mm 6 mps 724 mmHg 87%
    18:00 -2°C° 0.4 mm 6 mps 724 mmHg 87%
    19:00 -2°C° 0.4 mm 6 mps 724 mmHg 87%
    20:00 -1°C° 0.4 mm 7 mps 724 mmHg 86%
    21:00 -1°C° 0.1 mm 7 mps 725 mmHg 86%
    22:00 -2°C° 0.1 mm 7 mps 725 mmHg 85%
    23:00 -2°C° 0.1 mm 7 mps 726 mmHg 84%

    Day after tomorrow, 18 January, Friday

    Time Temperature Precipitation Wind Pressure Humidity
    00:00 -2°C° 0.3 mm 6 mps 727 mmHg 86%
    01:00 -1°C° 0.3 mm 5 mps 728 mmHg 87%
    02:00 -1°C° 0.3 mm 4 mps 728 mmHg 89%
    03:00 -1°C° 0.2 mm 3 mps 729 mmHg 91%
    04:00 -2°C° 0.2 mm 3 mps 729 mmHg 93%
    05:00 -3°C° 0.2 mm 2 mps 729 mmHg 94%
    06:00 -3°C° 0.2 mm 2 mps 730 mmHg 94%
    07:00 -4°C° 0.2 mm 2 mps 730 mmHg 95%
    08:00 -5°C° 0.2 mm 2 mps 731 mmHg 95%
    09:00 -5°C° 0.2 mm 2 mps 731 mmHg 94%
    10:00 -6°C° 0.2 mm 2 mps 732 mmHg 92%
    11:00 -7°C° 0.2 mm 2 mps 732 mmHg 91%
    12:00 -7°C° 0.1 mm 2 mps 732 mmHg 90%
    13:00 -7°C° 0.1 mm 2 mps 733 mmHg 90%
    14:00 -7°C° 0.1 mm 2 mps 733 mmHg 89%
    15:00 -8°C° 0 mm 2 mps 733 mmHg 90%
    16:00 -9°C° 0 mm 2 mps 734 mmHg 90%
    17:00 -10°C° 0 mm 2 mps 734 mmHg 91%
    18:00 -10°C° 0 mm 2 mps 735 mmHg 91%
    19:00 -12°C° 0 mm 3 mps 735 mmHg 91%
    20:00 -12°C° 0 mm 3 mps 736 mmHg 91%
    21:00 -10°C° 0 mm 3 mps 736 mmHg 91%
    22:00 -11°C° 0 mm 4 mps 737 mmHg 91%
    23:00 -10°C° 0 mm 4 mps 737 mmHg 91%

    19 January, Saturday

    Time Temperature Precipitation Wind Pressure Humidity
    00:00 -10°C° 0 mm 4 mps 737 mmHg 91%
    01:00 -9°C° 0 mm 4 mps 738 mmHg 91%
    02:00 -9°C° 0 mm 4 mps 738 mmHg 91%
    03:00 -9°C° 0.1 mm 4 mps 738 mmHg 91%
    04:00 -8°C° 0.1 mm 4 mps 739 mmHg 90%
    05:00 -8°C° 0.1 mm 4 mps 739 mmHg 90%
    06:00 -9°C° 0 mm 4 mps 739 mmHg 90%
    07:00 -9°C° 0 mm 4 mps 739 mmHg 90%
    08:00 -10°C° 0 mm 4 mps 739 mmHg 90%
    09:00 -10°C° 0 mm 5 mps 740 mmHg 89%
    10:00 -8°C° 0 mm 5 mps 740 mmHg 88%
    11:00 -7°C° 0 mm 5 mps 740 mmHg 87%
    12:00 -7°C° 0 mm 5 mps 741 mmHg 86%
    13:00 -7°C° 0 mm 5 mps 741 mmHg 85%
    14:00 -6°C° 0 mm 5 mps 741 mmHg 84%
    15:00 -7°C° 0 mm 4 mps 741 mmHg 85%
    16:00 -7°C° 0 mm 4 mps 741 mmHg 86%
    17:00 -7°C° 0 mm 4 mps 742 mmHg 87%
    18:00 -7°C° 0 mm 4 mps 742 mmHg 88%
    19:00 -7°C° 0 mm 3 mps 742 mmHg 89%
    20:00 -8°C° 0 mm 3 mps 742 mmHg 90%
    21:00 -8°C° 0 mm 3 mps 742 mmHg 91%
    22:00 -9°C° 0 mm 3 mps 743 mmHg 92%
    23:00 -9°C° 0 mm 3 mps 743 mmHg 93%

    20 January, Sunday

    Time Temperature Precipitation Wind Pressure Humidity
    00:00 -10°C° 0 mm 3 mps 743 mmHg 93%
    01:00 -10°C° 0 mm 3 mps 743 mmHg 92%
    02:00 -10°C° 0 mm 3 mps 744 mmHg 92%
    03:00 -10°C° 0 mm 3 mps 744 mmHg 92%
    04:00 -10°C° 0 mm 3 mps 744 mmHg 92%
    05:00 -12°C° 0 mm 3 mps 744 mmHg 93%
    06:00 -12°C° 0 mm 3 mps 744 mmHg 93%
    07:00 -12°C° 0 mm 3 mps 744 mmHg 94%
    08:00 -12°C° 0 mm 3 mps 744 mmHg 94%
    09:00 -10°C° 0.1 mm 3 mps 744 mmHg 94%
    10:00 -9°C° 0.1 mm 3 mps 744 mmHg 94%
    11:00 -8°C° 0.1 mm 3 mps 744 mmHg 93%
    12:00 -8°C° 0.2 mm 3 mps 744 mmHg 92%
    13:00 -7°C° 0.2 mm 3 mps 744 mmHg 90%
    14:00 -7°C° 0.2 mm 4 mps 744 mmHg 88%
    15:00 -7°C° 0.1 mm 3 mps 744 mmHg 90%
    16:00 -8°C° 0.1 mm 3 mps 744 mmHg 91%
    17:00 -8°C° 0.1 mm 3 mps 744 mmHg 93%
    18:00 -8°C° 0 mm 2 mps 744 mmHg 93%
    19:00 -8°C° 0 mm 2 mps 744 mmHg 94%
    20:00 -8°C° 0 mm 2 mps 744 mmHg 95%
    21:00 -8°C° 0 mm 2 mps 744 mmHg 95%
    22:00 -8°C° 0 mm 2 mps 744 mmHg 95%
    23:00 -7°C° 0 mm 1 mps 744 mmHg 96%

    21 January, Monday

    Time Temperature Precipitation Wind Pressure Humidity
    00:00 -8°C° 0 mm 1 mps 744 mmHg 95%
    01:00 -8°C° 0 mm 1 mps 744 mmHg 95%
    02:00 -8°C° 0 mm 1 mps 744 mmHg 95%
    03:00 -8°C° 0 mm 0 mps 743 mmHg 95%
    04:00 -8°C° 0 mm 0 mps 743 mmHg 95%
    05:00 -8°C° 0 mm 0 mps 743 mmHg 95%
    06:00 -9°C° 0 mm 0 mps 743 mmHg 95%
    07:00 -9°C° 0 mm 0 mps 743 mmHg 96%
    08:00 -9°C° 0 mm 1 mps 744 mmHg 96%
    09:00 -8°C° 0 mm 1 mps 744 mmHg 95%
    10:00 -8°C° 0 mm 1 mps 744 mmHg 95%
    11:00 -8°C° 0 mm 1 mps 744 mmHg 94%
    12:00 -8°C° 0 mm 2 mps 745 mmHg 93%
    13:00 -8°C° 0 mm 2 mps 745 mmHg 91%
    14:00 -9°C° 0 mm 3 mps 745 mmHg 90%
    15:00 -9°C° 0.1 mm 2 mps 745 mmHg 91%
    16:00 -10°C° 0.1 mm 2 mps 745 mmHg 92%
    17:00 -10°C° 0.1 mm 2 mps 746 mmHg 93%
    18:00 -13°C° 0 mm 2 mps 746 mmHg 94%
    19:00 -14°C° 0 mm 2 mps 746 mmHg 95%
    20:00 -15°C° 0 mm 2 mps 746 mmHg 96%
    21:00 -15°C° 0 mm 2 mps 746 mmHg 97%
    22:00 -15°C° 0 mm 2 mps 747 mmHg 97%
    23:00 -16°C° 0 mm 2 mps 747 mmHg 97%
    Show more